Hulianwang W. Digui 13-05

operational
NORAD ID: 66416 Int'l Des: 2025-258 Owner: ZXW Country: CN Constellation: xingwang
NOTLE

About Hulianwang W. Digui 13-05

Description loading...

Live Position

Loading 3D Globe...

Upcoming Passes

Altitude History

Altitude vs Time

uPlot chart will show altitude changes over time

Two-Line Element Set

1 66416U 25258E 25336.18079358 .00000080 00000-0 10446-3 0 9991
2 66416 50.0045 306.4445 0012751 327.4493 32.5632 14.23468154 3151
Epoch: Dec 2, 2025 • Age: 73 hours

Current Status

Altitude 813.8 km
Velocity 7.45 km/s
Sub-Earth Point 37.20°N, 176.72°W
Launch Date Nov 10, 2025
Age 25 days
Type other

Technical Details

Classification Payload
Mass 800.00 kg
Dry Mass 800.00 kg
Total Mass 800.00 kg
Length 3.00 m
Diameter 1.00 m
Span 10.00 m
Shape Box + 2 Pan
Manufacturer YINNT
Bus Type Guowang Y
Phase Status In Orbit
Owner/State ZXW/CN

Large Constellations

Loading constellations...